Powrót do katalogu

COSMOS 2491 DEB

LostPO
NORAD 57547·DEBRIS·🇷🇺 Russia

Wystrzelony Dec 25, 2013 z Plesetsk Cosmodrome

Loading…

Następne Przeloty (najbliższe 24 godziny)

TLE

NieaktualneSource: Space-Track

Epoka: Jul 9, 2026, 14:54 UTC

1 57547U 13076AJ  26190.62130399  .00001093  00000-0  71877-2 0  9991
2 57547  82.4641 144.5643 0018337  15.8415 344.3238 12.49344625144240

Śledź COSMOS 2491 DEB w czasie rzeczywistym z AllMySat

Download on the App Store